This is the latest recevied weather packets stored in our database for station/object DB0DUS-10. If no packets are shown the sender has not sent any weather packets the latest 10 day(s).
| Time | Temp. | Humidity | Pressure | Rain* | Wind** | Luminosity | Snow |
|---|---|---|---|---|---|---|---|
| 1777624692 | 20° C | 22% | 1027.1 hPa | 0 mm | - | - | - |
| 1777624093 | 20° C | 22% | 1027.2 hPa | 0 mm | - | - | - |
| 1777622892 | 19.44° C | 24% | 1027.3 hPa | 0 mm | - | - | - |
| 1777622594 | 19.44° C | 25% | 1027.1 hPa | 0 mm | - | - | - |
| 1777621092 | 17.78° C | 26% | 1027.2 hPa | 0 mm | - | - | - |
| 1777619593 | 17.22° C | 29% | 1027.2 hPa | 0 mm | - | - | - |
| 1777619292 | 17.22° C | 31% | 1027.2 hPa | 0 mm | - | - | - |
| 1777618094 | 16.67° C | 32% | 1027.2 hPa | 0 mm | - | - | - |
| 1777617492 | 16.11° C | 33% | 1027.1 hPa | 0 mm | - | - | - |
| 1777616593 | 16.11° C | 35% | 1027.1 hPa | 0 mm | - | - | - |
| 1777615692 | 15° C | 37% | 1027.1 hPa | 0 mm | - | - | - |
| 1777615093 | 15° C | 38% | 1027.2 hPa | 0 mm | - | - | - |
| 1777613892 | 13.89° C | 40% | 1027.2 hPa | 0 mm | - | - | - |
| 1777613593 | 13.89° C | 41% | 1027.2 hPa | 0 mm | - | - | - |
| 1777612092 | 12.78° C | 44% | 1027 hPa | 0 mm | - | - | - |
| 1777610593 | 12.22° C | 45% | 1026.9 hPa | 0 mm | - | - | - |
| 1777610292 | 12.22° C | 45% | 1026.9 hPa | 0 mm | - | - | - |
| 1777609093 | 12.22° C | 45% | 1026.7 hPa | 0 mm | - | - | - |
| 1777608492 | 12.22° C | 45% | 1026.7 hPa | 0 mm | - | - | - |
| 1777607593 | 12.22° C | 45% | 1026.8 hPa | 0 mm | - | - | - |
| 1777606693 | 12.78° C | 45% | 1026.8 hPa | 0 mm | - | - | - |
| 1777606093 | 12.78° C | 45% | 1026.8 hPa | 0 mm | - | - | - |
| 1777604893 | 12.78° C | 45% | 1026.7 hPa | 0 mm | - | - | - |
| 1777604594 | 12.78° C | 45% | 1026.7 hPa | 0 mm | - | - | - |
| 1777603093 | 12.78° C | 45% | 1026.8 hPa | 0 mm | - | - | - |
* Rain latest hour (hover to see other rain measurements)
** Current wind speed in m/s (hover to see current wind gust speed)